Maxwell AFB, AL

3:57 PM CDT on March 24, 2017 (GMT -0500)
Maxwell Air Force Base

Weather History for KMXF - December, 2012

Change the Weather History Date:

Saturday, December 22, 2012

  Actual Average Record
Temperature  
Mean Temperature 42 °F -  
Max Temperature 57 °F 57 °F 75 °F (2011)
Min Temperature 28 °F 38 °F 24 °F (2005)
Degree Days  
Heating Degree Days 22    
Moisture  
Dew Point 21 °F    
Average Humidity 52    
Maximum Humidity 88    
Minimum Humidity 19    
Precipitation  
Precipitation 0.00 in - - ()
Sea Level Pressure  
Sea Level Pressure 30.31 in    
Wind  
Wind Speed 3 mph (WNW)    
Max Wind Speed 9 mph    
Max Gust Speed -    
Visibility 10 miles    
Events      
Averages and records for this station are not official NWS values.
T = Trace of Precipitation, MM = Missing Value Source: NWS Daily Summary

Daily Weather History Graph

Daily Weather History Graph

Search for Another Location

Airport or City:

Trip Planner

Search our weather history database for the weather conditions in past years. The results will help you decide how hot, cold, wet, or windy it might be!

Date:

Astronomy

Dec. 22, 2012 Rise Set
Actual Time 6:43 AM CST 4:45 PM CST
Civil Twilight 6:16 AM CST 5:12 PM CST
Nautical Twilight 5:45 AM CST 5:43 PM CST
Astronomical Twilight 5:15 AM CST 6:12 PM CST
Moon 12:53 PM CST (12/22) 1:38 AM CST (12/22)
Length of Visible Light 10h 55m
Length of Day
10h 01m
Waxing Gibbous, 74% of the Moon is Illuminated
Dec 22
Waxing Gibbous
Dec 28
Full
Jan 4
Last Quarter
Jan 11
New
Jan 18
First Quarter

Hourly Weather History & Observations

Time (CST) Temp. Windchill Dew Point Humidity Pressure Visibility Wind Dir Wind Speed Gust Speed Precip Events Conditions
12:55 AM 33.4 °F 29.1 °F 17.1 °F 51% 30.30 in 10.0 mi WSW 4.6 mph - N/A   Clear
1:55 AM 33.4 °F 30.4 °F 16.0 °F 49% 30.31 in 10.0 mi WSW 3.5 mph - N/A   Clear
2:55 AM 32.2 °F 28.9 °F 17.6 °F 55% 30.30 in 10.0 mi West 3.5 mph - N/A   Clear
3:55 AM 30.7 °F 26.0 °F 17.6 °F 58% 30.30 in 10.0 mi West 4.6 mph - N/A   Clear
4:55 AM 30.0 °F 25.2 °F 17.8 °F 60% 30.31 in 10.0 mi West 4.6 mph - N/A   Clear
5:55 AM 28.9 °F - 18.3 °F 65% 30.34 in 10.0 mi Calm Calm - N/A   Clear
6:55 AM 29.5 °F 25.9 °F 18.1 °F 63% 30.37 in 10.0 mi WSW 3.5 mph - N/A   Clear
7:55 AM 33.3 °F 30.2 °F 18.5 °F 55% 30.38 in 10.0 mi NW 3.5 mph - N/A   Clear
8:55 AM 38.1 °F 35.7 °F 17.2 °F 43% 30.39 in 10.0 mi NW 3.5 mph - N/A   Clear
9:55 AM 43.5 °F 40.1 °F 15.1 °F 32% 30.40 in 10.0 mi NW 5.8 mph - N/A   Clear
10:55 AM 48.7 °F - 14.0 °F 25% 30.37 in 10.0 mi NNW 3.5 mph - N/A   Clear
11:55 AM 53.4 °F - 11.1 °F 19% 30.33 in 10.0 mi NNW 6.9 mph - N/A   Clear
12:55 PM 55.4 °F - 13.3 °F 19% 30.30 in 10.0 mi NNW 4.6 mph - N/A   Clear
1:55 PM 57.0 °F - 15.4 °F 20% 30.28 in 10.0 mi West 6.9 mph - N/A   Clear
2:55 PM 57.9 °F - 16.5 °F 20% 30.28 in 10.0 mi WNW 9.2 mph - N/A   Clear
3:55 PM 57.2 °F - 17.4 °F 21% 30.28 in 10.0 mi Variable 3.5 mph - N/A   Clear
4:55 PM 47.8 °F - 28.4 °F 47% 30.27 in 10.0 mi Calm Calm - N/A   Clear
5:55 PM 41.7 °F - 29.8 °F 63% 30.28 in 10.0 mi Calm Calm - N/A   Clear
6:55 PM 39.7 °F - 29.5 °F 67% 30.28 in 10.0 mi Calm Calm - N/A   Clear
7:55 PM 37.6 °F - 29.3 °F 72% 30.28 in 10.0 mi Calm Calm - N/A   Clear
8:55 PM 34.5 °F - 29.7 °F 82% 30.27 in 10.0 mi Calm Calm - N/A   Clear
9:55 PM 34.0 °F - 28.0 °F 79% 30.27 in 10.0 mi Calm Calm - N/A   Clear
10:55 PM 32.2 °F - 28.9 °F 88% 30.27 in 10.0 mi Calm Calm - N/A   Clear
11:55 PM 30.9 °F - 27.5 °F 87% 30.25 in 10.0 mi Calm Calm - N/A   Clear